[[{"header":{"parameterUnit":"m.s-1","parameterCategory":1,"la1":30.2991,"la2":30.254,"lo1":-89.0895,"lo2":-89.0444,"dy":0.0017,"dx":0.0017,"nx":28,"ny":28,"refTime":"2025-03-05T09:00:00:Z","depth":0,"parameterNumber":2,"parameterNumberName":"U-component_of_WINDS"},"data":[0,0,0,0,0,0,0,0,0,0,0,0,0,0,0,0,0,0,0,0,0,0,0,0,0,0,0,0,0,0,0,0,0,0,0,0,0,0,0,0,0,0,0,0,0,0,0,0,0,0,0,0,0,0,0,0,0,0,3.2441,3.2441,0,3.2445,3.2445,3.2445,3.237,3.2368,3.2366,3.2364,3.2372,3.2374,3.2376,0,0,0,0,0,0,0,0,0,0,0,0,0,3.2376,3.2378,3.2441,3.2441,3.2441,3.2445,3.2445,3.2445,3.2371,3.2368,3.2366,3.2363,3.2372,3.2374,3.2377,0,0,0,0,0,0,0,0,0,0,0,0,0,3.2395,3.2378,3.2441,3.2405,3.2401,3.2445,3.2445,3.2445,3.2371,3.2368,3.2365,3.2362,3.2371,3.2374,3.2377,3.2457,0,0,3.2387,3.2388,0,0,0,0,0,0,0,0,3.2394,3.2397,3.241,3.2407,3.2404,3.2404,3.2425,3.2449,3.2372,3.2383,3.2364,3.2361,3.2386,3.2387,3.2395,3.2457,3.2458,3.2387,3.2389,3.239,3.2391,0,0,0,0,0,0,0,3.2393,3.2397,3.2443,3.241,3.2406,3.239,3.2389,3.2429,3.2401,3.2382,3.2376,3.2377,3.2383,3.2392,3.2394,3.2458,3.2387,3.239,3.2392,3.2393,3.2589,3.2592,0,0,0,0,0,0,3.2396,3.2396,3.2443,3.2443,3.2391,3.2394,3.2393,3.2407,3.2401,3.2397,3.238,3.2374,3.2388,3.2391,3.2394,3.2488,3.239,3.2393,3.2395,3.2585,3.2589,3.2593,0,0,0,0,0,0,3.2395,3.24,3.2443,3.2418,3.2422,3.2398,3.2415,3.2409,3.2417,3.2399,3.2395,3.2393,3.2386,3.239,3.2442,3.2487,3.2395,3.2397,3.2581,3.2586,3.2591,3.2676,0,0,0,0,0,0,3.2393,3.24,3.2429,3.2419,3.2424,3.2489,3.2417,3.2411,3.2422,3.2414,3.2411,3.2407,3.2384,3.2438,3.2445,3.249,3.24,3.2577,3.2584,3.2589,3.2669,3.2683,3.2696,0,0,0,0,0,3.2391,3.2453,3.2431,3.2437,3.2459,3.2491,3.2494,3.2464,3.2426,3.2456,3.2445,3.2407,3.2482,3.2444,3.2452,3.2498,3.2574,3.2582,3.2589,3.2663,3.2681,3.2695,0,0,0,0,0,0,3.247,3.2451,3.2426,3.2487,3.2491,3.2478,3.2514,3.2484,3.25,3.2492,3.2456,3.2456,3.2514,3.2512,3.247,3.2576,3.2521,3.2531,3.2575,3.2592,3.2605,3.2604,3.2402,0,0,0,0,0,3.2494,3.2521,3.2504,3.2559,3.2563,3.2539,3.2552,3.2529,3.2532,3.2534,3.2527,3.2533,3.2558,3.2575,3.2597,3.2669,3.2668,3.2705,3.2719,3.273,3.2738,3.2777,3.2794,3.2617,3.2617,3.2617,0,0,3.2545,3.2538,3.2557,3.2575,3.2576,3.2606,3.2541,3.2575,3.2597,3.254,3.2588,3.2583,3.2588,3.2651,3.2679,3.2651,3.2787,3.2739,3.2748,3.275,3.2787,3.2803,3.2818,3.2622,3.2621,3.2621,0,0,3.2653,3.265,3.2696,3.2698,3.27,3.2684,3.2695,3.2688,3.2682,3.273,3.2688,3.2716,3.2759,3.2764,3.2773,3.2886,3.2853,3.2895,3.2963,3.3002,3.3016,3.3028,3.3069,3.3084,3.2903,3.2903,3.2904,0,3.2716,3.2757,3.2724,3.2761,3.2771,3.272,3.2768,3.2773,3.2782,3.2791,3.276,3.2814,3.2814,3.2878,3.2905,3.2914,3.2927,3.2894,3.3016,3.3028,3.3039,3.3078,3.3093,3.2908,3.2908,3.2907,3.2907,0,3.2835,3.2865,3.2903,3.2912,3.2926,3.2969,3.2944,3.2963,3.294,3.2929,3.298,3.2978,3.2999,3.3013,3.2991,3.3075,3.3058,3.3022,3.2966,3.3062,3.3097,3.3112,3.2916,3.2914,3.2912,3.2911,0,0,3.2989,3.2982,3.2996,3.3,3.3,3.3023,3.3065,3.3084,3.3102,3.3112,3.3146,3.3185,3.3153,3.3163,3.3142,3.3176,3.3267,3.3136,3.3136,3.3161,3.336,3.3386,3.3404,3.3246,3.3248,3.325,3.336,0,3.3093,3.3161,3.3134,3.3206,3.3234,3.3188,3.3225,3.323,3.3221,3.3245,3.3236,3.3264,3.3219,3.3225,3.3257,3.3249,3.3306,3.3241,3.3279,3.328,3.3277,3.3422,3.3449,3.3552,3.3373,3.3376,3.3377,0,3.3223,3.3236,3.331,3.3306,3.3317,3.335,3.3367,3.3391,3.3397,3.3388,3.3401,3.3373,3.3415,3.3361,3.3421,3.3377,3.3391,3.339,3.3393,3.3395,3.3334,3.3427,3.3584,3.3599,3.3399,3.3397,3.3396,0,3.3328,3.3365,3.3414,3.342,3.3416,3.3441,3.3441,3.3444,3.3458,3.3474,3.3484,3.3505,3.3517,3.3535,3.3515,3.3477,3.3578,3.3521,3.3573,3.3574,3.3595,3.3593,3.3756,3.3606,3.3606,3.3606,3.3605,0,3.3446,3.3492,3.3461,3.3491,3.3544,3.3514,3.3567,3.3563,3.3566,3.3597,3.356,3.3589,3.3561,3.3589,3.3573,3.3625,3.3631,3.3627,3.3622,3.3629,3.363,3.3637,3.3629,3.361,3.3609,3.3608,3.3607,0,3.357,3.3551,3.3602,3.3595,3.3595,3.3634,3.3629,3.3658,3.3648,3.3687,3.3694,3.3678,3.3709,3.3691,3.3723,3.3713,3.3781,3.3767,3.3778,3.3774,3.3826,3.3822,3.3998,3.402,3.3857,3.3859,3.386,0,3.3646,3.3681,3.3678,3.3695,3.3698,3.3726,3.374,3.3714,3.3731,3.3742,3.377,3.3798,3.3818,3.3871,3.3863,3.3888,3.3874,3.3934,3.3877,3.3884,3.3874,3.3872,3.3876,3.3945,3.3947,3.3949,3.395,0,3.3782,3.3772,3.3793,3.3812,3.3831,3.3845,3.3856,3.3873,3.3847,3.3869,3.3899,3.3915,3.3948,3.3977,3.3999,3.4001,3.3972,3.3968,3.3981,3.3989,3.3994,3.3991,3.3809,3.3964,3.3962,3.3961,3.3961,3.396,3.3884,3.3913,3.3917,3.3943,3.3949,3.3961,3.3988,3.3981,3.4006,3.403,3.4014,3.4051,3.4059,3.4085,3.4091,3.4121,3.4097,3.4116,3.4121,3.4126,3.4133,3.399,3.4125,3.4125,3.4124,3.4124,3.4124,0,3.4018,3.4018,3.4043,3.406,3.4081,3.4052,3.4064,3.4084,3.4116,3.4125,3.4147,3.4183,3.4212,3.4207,3.4234,3.4258,3.4246,3.4266,3.4263,3.4265,3.4153,3.4138,3.4276,3.4276,3.4276,3.4276,3.4276,3.4276,3.409,3.4138,3.4129,3.4181,3.4182,3.4216,3.4226,3.4238,3.4245,3.4287,3.431,3.4307,3.4312,3.4339,3.4364,3.4363,3.4374,3.4399,3.4393,3.4288,3.4273,3.4258,3.4244,3.4402,3.4402,3.4502,3.4503,3.4504]},{"header":{"parameterUnit":"m.s-1","parameterCategory":1,"la1":30.2991,"la2":30.254,"lo1":-89.0895,"lo2":-89.0444,"dy":0.0017,"dx":0.0017,"nx":28,"ny":28,"refTime":"2025-03-05T09:00:00:Z","depth":0,"parameterNumber":3,"parameterNumberName":"V-component_of_WINDS"},"data":[0,0,0,0,0,0,0,0,0,0,0,0,0,0,0,0,0,0,0,0,0,0,0,0,0,0,0,0,0,0,0,0,0,0,0,0,0,0,0,0,0,0,0,0,0,0,0,0,0,0,0,0,0,0,0,0,0,0,5.5886,5.5891,0,5.6296,5.6301,5.6306,5.6387,5.6384,5.6381,5.6378,5.6791,5.6804,5.6818,0,0,0,0,0,0,0,0,0,0,0,0,0,5.5166,5.5179,5.5886,5.5891,5.5896,5.6296,5.6301,5.6307,5.6388,5.6384,5.638,5.6376,5.6786,5.6803,5.6819,0,0,0,0,0,0,0,0,0,0,0,0,0,5.5517,5.5183,5.5885,5.5985,5.5998,5.6295,5.6301,5.6308,5.6388,5.6384,5.6379,5.6375,5.6781,5.6801,5.6822,5.7046,0,0,5.6886,5.6895,0,0,0,0,0,0,0,0,5.5497,5.5544,5.5965,5.5979,5.5994,5.6286,5.6199,5.6555,5.639,5.624,5.6378,5.6372,5.6626,5.6659,5.6747,5.7065,5.7083,5.6887,5.69,5.6909,5.6915,0,0,0,0,0,0,0,5.5473,5.5527,5.6048,5.5971,5.5989,5.6007,5.6052,5.6267,5.6454,5.6253,5.626,5.6307,5.6633,5.6726,5.6757,5.7089,5.6887,5.6905,5.6918,5.6927,5.7611,5.7616,0,0,0,0,0,0,5.5432,5.5506,5.6035,5.6061,5.5729,5.6024,5.6074,5.6197,5.6452,5.6487,5.6311,5.631,5.6693,5.6732,5.6772,5.7052,5.6909,5.6929,5.6941,5.7606,5.7612,5.7618,0,0,0,0,0,0,5.5416,5.5478,5.6019,5.5785,5.5856,5.6041,5.6179,5.6207,5.6301,5.6497,5.653,5.6373,5.6691,5.6742,5.6978,5.7068,5.6938,5.6957,5.7599,5.7608,5.7615,5.7613,0,0,0,0,0,0,5.5395,5.5472,5.5561,5.5787,5.5868,5.622,5.6184,5.6219,5.6338,5.634,5.6563,5.6595,5.6691,5.6946,5.6998,5.7094,5.6973,5.7592,5.7603,5.7613,5.7606,5.7621,5.7633,0,0,0,0,0,5.5369,5.5543,5.5565,5.5629,5.5983,5.6225,5.6271,5.638,5.6344,5.6435,5.656,5.6588,5.7048,5.6969,5.7029,5.7132,5.7587,5.76,5.7612,5.76,5.7618,5.7633,0,0,0,0,0,0,5.5321,5.5574,5.5602,5.5854,5.6018,5.6238,5.6356,5.6395,5.657,5.6564,5.6689,5.6739,5.6967,5.7072,5.698,5.7362,5.7315,5.734,5.7286,5.7304,5.7317,5.7288,5.6991,0,0,0,0,0,5.534,5.5517,5.5728,5.593,5.6011,5.6168,5.6278,5.6347,5.6521,5.659,5.6733,5.6898,5.708,5.7197,5.7375,5.762,5.767,5.7721,5.7734,5.7744,5.7765,5.7903,5.7928,5.766,5.766,5.766,0,0,5.538,5.554,5.5645,5.5924,5.6059,5.6239,5.6226,5.6416,5.6551,5.6618,5.6851,5.696,5.7153,5.7394,5.7507,5.7489,5.785,5.776,5.7767,5.7783,5.7919,5.7944,5.7966,5.7669,5.7667,5.7666,0,0,5.5547,5.5685,5.587,5.6005,5.6211,5.6314,5.6358,5.6573,5.665,5.6885,5.694,5.7098,5.7409,5.7545,5.7654,5.787,5.7902,5.7923,5.7995,5.8127,5.8149,5.8168,5.8246,5.8273,5.7943,5.7943,5.7943,0,5.5571,5.5846,5.5958,5.6148,5.6269,5.634,5.6526,5.6651,5.6903,5.6984,5.696,5.7352,5.7486,5.776,5.7813,5.7898,5.7952,5.79,5.8137,5.8157,5.8177,5.8253,5.8282,5.7945,5.7944,5.7944,5.7944,0,5.5866,5.6055,5.6179,5.6424,5.6558,5.6744,5.6883,5.7005,5.7062,5.7167,5.7404,5.7568,5.7781,5.785,5.7906,5.8133,5.8115,5.8112,5.8068,5.8202,5.8276,5.8306,5.7947,5.7946,5.7946,5.7945,0,0,5.6016,5.632,5.6364,5.6476,5.6706,5.6854,5.7042,5.7253,5.7355,5.7525,5.7686,5.7946,5.7946,5.8069,5.8141,5.8257,5.8419,5.824,5.8246,5.8269,5.8679,5.8682,5.8714,5.844,5.8446,5.8451,5.8663,0,5.6212,5.6555,5.6661,5.6947,5.7123,5.7192,5.7356,5.7513,5.7616,5.7778,5.789,5.8074,5.8058,5.8133,5.8251,5.8374,5.8503,5.8359,5.8591,5.8597,5.8544,5.8752,5.8757,5.8949,5.8692,5.8697,5.8701,0,5.6488,5.6666,5.697,5.7178,5.7256,5.7402,5.7604,5.7758,5.7937,5.8004,5.8141,5.8203,5.84,5.8342,5.8615,5.8515,5.8614,5.8689,5.8699,5.8727,5.866,5.8788,5.9013,5.9043,5.8747,5.8743,5.874,0,5.657,5.6884,5.7108,5.72,5.7449,5.755,5.7657,5.7832,5.7952,5.8126,5.8205,5.8398,5.8504,5.8651,5.8763,5.871,5.9026,5.8977,5.9086,5.9083,5.9152,5.9147,5.9399,5.9211,5.9211,5.921,5.921,0,5.678,5.6963,5.7148,5.7285,5.7492,5.7611,5.7812,5.7922,5.8077,5.8235,5.8303,5.845,5.8587,5.8751,5.8838,5.9051,5.9097,5.9156,5.9177,5.9152,5.9145,5.9221,5.9212,5.9218,5.9216,5.9215,5.9213,0,5.6908,5.7039,5.7287,5.7502,5.756,5.7703,5.7886,5.802,5.8124,5.8324,5.8377,5.854,5.8737,5.8862,5.911,5.9169,5.9403,5.9419,5.9344,5.9355,5.9458,5.9447,5.9771,5.982,5.9595,5.9597,5.9599,0,5.7034,5.7178,5.7409,5.7521,5.763,5.781,5.7933,5.8053,5.8178,5.8392,5.8501,5.8702,5.887,5.918,5.9319,5.9509,5.9532,5.9632,5.9561,5.9531,5.9536,5.9528,5.9543,5.9644,5.9646,5.9648,5.9649,0,5.7246,5.7304,5.748,5.768,5.7825,5.7987,5.8148,5.8235,5.8382,5.8518,5.8722,5.8852,5.9107,5.9306,5.9509,5.9616,5.9658,5.9669,5.9706,5.9683,5.9634,5.9664,5.9379,5.9663,5.9661,5.966,5.9659,5.9659,5.738,5.7511,5.7695,5.7888,5.8023,5.8172,5.831,5.8431,5.8604,5.8824,5.8882,5.9095,5.9268,5.9545,5.9657,5.9823,5.981,5.9861,5.9874,5.9886,5.9889,5.9605,5.9859,5.9859,5.9859,5.9859,5.9858,0,5.7598,5.7719,5.7896,5.8121,5.8273,5.8299,5.8479,5.8603,5.8791,5.895,5.9115,5.9347,5.954,5.9694,5.9891,5.9995,6.0018,6.0043,6.0038,6.0062,5.9888,5.9839,6.002,6.002,6.002,6.002,6.002,6.002,5.7729,5.7953,5.8032,5.8322,5.8441,5.8653,5.8753,5.889,5.9019,5.9277,5.9439,5.9538,5.9695,5.9904,6.0082,6.0121,6.0192,6.0213,6.0256,6.0092,6.0074,6.0057,6.0012,6.0226,6.0227,6.0417,6.0419,6.042]}]]